sat.trackr.live / text

‹ back to catalog

STARLINK-5283

NORAD 55396 · 2023-014F

PAYLOAD ACTIVE UNKNOWN

§ Identity

Operator
Country
US
Launch date
2023-01-31
Launch site
AFWTR
Launch vehicle
Mass (kg)
RCS (m²)

Purposes: comms

External: N2YO · Heavens-Above · Gunter

§ Orbital elements

Epoch: 2026-09-20T19:03:51.792480Z

Period
96.11 min
Inclination
69.9973°
Eccentricity
0.0003523
Mean motion
14.98330853 rev/d
Perigee alt
569.6 km
Apogee alt
574.5 km
Semi-major
6,950.2 km
B*
2.3352e-5
RAAN
292.3914°
Arg perigee
274.7728°
Mean anomaly
85.3029°
Rev number
20,128

§ Raw data

STARLINK-52831 55396U 23014F   26263.79434945  .00000186  00000+0  23352-4 0  99952 55396  69.9973 292.3914 0003523 274.7728  85.3029 14.98330853201287

JSON: /api/v1/satellites/55396 · /tle

For live sub-satellite position, see the globe view (requires WebGL).

§ Visibility from observer

Set your observer location to see the next 7 days of passes ≥ 10°. The values pass through the URL so the page stays shareable.

No JS? Fill the form by hand. The geolocation button needs JavaScript.